Regional Weather Roundup
Issued by NWS Portland, ME

Home | Current Version | Previous Version | Text Only | Print | Product List | Glossary On
Versions: 1 2 3 4 5 6 7 8 9 10 11 12 13 14 15 16 17 18 19 20 21 22 23 24 25 26 27 28 29 30 31 32 33 34 35 36 37 38 39 40 41 42 43 44 45 46 47 48 49 50
000
ASUS41 KGYX 201810
RWRGYX
WEATHER ROUNDUP FOR MAINE AND NEW HAMPSHIRE
NATIONAL WEATHER SERVICE GRAY ME
200 PM EDT MON OCT 20 2014

MEZ002-005-006-010-012-015-018-020-021-024-026-027-029-201900-
MAINE

CITY           SKY/WX    TMP DP  RH WIND       PRES   REMARKS
PORTLAND       MOSUNNY   54  27  35 SW10      29.94F
6HR MIN TEMP:  40; 6HR MAX TEMP:  54;

SANFORD        SUNNY     52  27  37 SW15      29.95F
BAR HARBOR     SUNNY     48  27  43 W9        29.91S
WISCASSET      SUNNY     50  27  40 VRB5      29.95F
6HR MIN TEMP:  38; 6HR MAX TEMP:  50;

ROCKLAND       SUNNY     48  28  46 SW13G18   29.91F
FRYEBURG       MOSUNNY   51  23  33 MISG      29.92F
6HR MIN TEMP:  39; 6HR MAX TEMP:  53;

LEWISTONAUBURN MOSUNNY   50  25  37 SW6       29.92F
AUGUSTA        MOSUNNY   50  23  34 SW9G17    29.92F HAZE
6HR MIN TEMP:  38; 6HR MAX TEMP:  50;

WATERVILLE     SUNNY     48  25  40 SW10      29.89S
BANGOR         MOSUNNY   48  25  40 W6        29.90F
6HR MIN TEMP:  40; 6HR MAX TEMP:  49;

GREENVILLE       N/A     44  23  43 VRB6      29.82F
6HR MIN TEMP:  34; 6HR MAX TEMP:  44;

MILLINOCKET    SUNNY     47  26  44 VRB7G20   29.87S
6HR MIN TEMP:  39; 6HR MAX TEMP:  48;

HOULTON        PTSUNNY   44  26  49 W17       29.82S
6HR MIN TEMP:  36; 6HR MAX TEMP:  44;

PRESQUE ISLE   MOSUNNY   43  25  49 W13G23    29.79S
6HR MIN TEMP:  36; 6HR MAX TEMP:  43;

FRENCHVILLE    SUNNY     41  23  48 W18G28    29.75F
6HR MIN TEMP:  30; 6HR MAX TEMP:  41;

CARIBOU        PTSUNNY   44  25  47 W17G26    29.78R
6HR MIN TEMP:  34; 6HR MAX TEMP:  45;

$$

NHZ002-005-008-009-011-012-014-201900-
NEW HAMPSHIRE

CITY           SKY/WX    TMP DP  RH WIND       PRES   REMARKS
PORTSMOUTH     MOSUNNY   53  28  38 W10       29.95F
ROCHESTER      SUNNY     51  27  39 VRB5      29.95F
6HR MIN TEMP:  39; 6HR MAX TEMP:  52;

NASHUA         SUNNY     56  30  37 W9        29.97F
MANCHESTER     MOSUNNY   55  29  36 SW6       29.94F
6HR MIN TEMP:  37; 6HR MAX TEMP:  55;

CONCORD        SUNNY     53  29  39 SW7       29.95F
6HR MIN TEMP:  36; 6HR MAX TEMP:  54;

LACONIA        SUNNY     52  27  37 SW13      29.92F
PLYMOUTH       CLOUDY    50  33  53 NW7       29.94S
BERLIN         PTSUNNY   49  25  39 MISG      29.90F
6HR MIN TEMP:  35; 6HR MAX TEMP:  49;

WHITEFIELD     MOSUNNY   49  27  42 W8        29.92F
6HR MIN TEMP:  35; 6HR MAX TEMP:  49;

JAFFREY        MOSUNNY   50  31  48 W7G18     29.96F
6HR MIN TEMP:  32; 6HR MAX TEMP:  50;

LEBANON        MOSUNNY   53  29  39 W14G20    29.94F
6HR MIN TEMP:  28; 6HR MAX TEMP:  53;

MT WASHINGTON  NOT AVBL
$$

VTZ005-007-008-201900-
VERMONT

CITY           SKY/WX    TMP DP  RH WIND       PRES   REMARKS
ST JOHNSBURY     N/A     47  29  49 MISG      29.92F
MONTPELIER     CLOUDY    47  29  49 W6        29.96F
BURLINGTON     PTSUNNY   47  32  56 S9        29.94F
$$

MAZ007-012-024-CTZ003-RIZ002-NYZ038-NYZ072-201900-
SOUTHERN NEW ENGLAND AND NY

CITY           SKY/WX    TMP DP  RH WIND       PRES   REMARKS
BOSTON         MOSUNNY   55  31  39 SW12      29.98F
WORCESTER      SUNNY     50  30  46 SW14      29.98F
NANTUCKET      SUNNY     54  38  54 W20G26    30.03F
PROVIDENCE     MOSUNNY   56  31  38 SW10      30.02F
HARTFORD       PTSUNNY   57  34  41 S14       29.99F
ALBANY         PTSUNNY   52  34  50 S14       29.96F
NEW YORK CITY  PTSUNNY   57  33  40 SW12G18   30.04F
$$

ANZ081-ANZ082-ANZ150-NHZ014-MEZ023>029-201900-
COASTAL MARINE OBSERVATIONS

STATION/POSITION TIME  TEMP    WIND        PRES    WAVE
                       AIR SEA DIR/SP/G            HT/PER
                 (UTC) (F)     (DEG/KT/KT) (MB)    (FT/S)
MATINICUS ROCK   1800          250/ 17/ 20 1013.3F
PORTLAND WX BUOY 1750   49 55  230/ 10/ 12 1014.1F   2/11
WELLS            1700   49 50  260/  9/ 15 1014.0F
ISLE OF SHOALS   1800   49     240/ 12/ 13 1014.1F
JEFFREYS LEDGE   1721      56                N/A     3/ 4
CASHES LEDGE BUO 1750   47 56  260/ 17/ 19 1014.1F   3/11
$$

.............KEY..............
   WCI - WIND CHILL
   TC  - TEMPERATURE IN CELSIUS
   VSB - VISIBILITY IN MILES
   HX  - HEAT INDEX
   FAIR- INDICATES FEW OR NO CLOUDS BELOW 12,000 FT, WITH NO
         SIGNIFICANT WEATHER AND/OR OBSTRUCTIONS TO VISIBILITY.





USA.gov is the U.S. government's official web portal to all federal, state and local government web resources and services.